ATLAS 5 CENTAUR DEB, 44662

Orbit data source: Space-Track

ATLAS 5 CENTAUR DEB, 44662 is space debris in HEO originally from a launch on Wed, 17 Oct 2018 UTC launched from the Air Force Eastern Test Range (AFETR). Debris objects in space refer to the collection of defunct objects orbiting the Earth. Examples of debris include non-operational satellites, rocket bodies, and fragments generated from explosions, collisions, or faulty payload assembly.

Loading next visibility...
Identifier
44662, 2018-079Y
Orbit
HEO
Country
Flag of USUS
Related business
Flag of USUnited Launch Alliance/Lockheed Martin (US)
Manufacturer
ULA Decatur
Mission
Spacecraft
Bus & Motor
Unknown
Mass
Unknown
Launch date (UTC)
2018-10-17 (7 years ago)
Launch vehicle
Unknown
Launch site
Air Force Eastern Test Range (AFETR)
Object type
Payload
Rocket body
Debris
Shape & HBR
Unknown shape, 1.1 m
Radar Cross Section
RCS unknown

Expand to show TLE details & history
Last TLE update: 2 days ago

TLE from 2 days ago
0 ATLAS 5 CENTAUR DEB
1 44662U 18079Y   25348.04570896 -.00000068  00000-0  00000-0 0  9993
2 44662  13.1045  44.4542 4696062 300.2630  21.5060  1.84809599 44137
Epoch: 2025-12-14T01:05Z
TLE epoch observation values (Epoch: 2025-12-14T01:05:49.254Z)
Latitude
0.00013°
Longitude
-55.01964°
Altitude
11,326.776 km
Speed
5.551 km/s
True Right ascension
02h 57m 35s
True Declination
0° 00' 00"
Sunlit
Object was in daylight at epoch
Visualization orbit readout
Latitude
Unknown
Longitude
Unknown
Altitude
Unknown
Speed
Unknown
Apparent Right ascension
Unknown
Apparent Declination
Unknown
Sunlit
N/A
Visualization observer readout
Local Sidereal Time
06:07:39
Azimuth
Unknown
Elevation
Unknown
Doppler factor
Unknown
Orbital elements
Apogee altitude
34,846.104 km
Perigee altitude
8,500.054 km
Semi-major axis
28,051.216 km
Eccentricity
0.46961
Inclination
13.1045°
RAAN
44.4542°
Arg. of periapsis
300.263°
True anomaly
59.79732°
Mean anomaly
21.506°
Eccentric anomaly
38.11308°
Mean motion
0.46197 °/min
Orbital period
779.27 mins
BSTAR
0
Loading maneuver chart data...
Computing Atmospheric mass density...

Documentation

Showing up to 5 results
|